Paducah, KY

3:34 PM CDT on March 29, 2017 (GMT -0500)
Barkley Regional

Weather History for KPAH - May, 2014

Change the Weather History Date:

Wednesday, May 21, 2014

  Actual Average Record
Temperature  
Mean Temperature 76 °F 68 °F  
Max Temperature 88 °F 79 °F 94 °F (1987)
Min Temperature 64 °F 58 °F 41 °F (1954)
Degree Days  
Heating Degree Days 0 1  
Month to date heating degree days 57 55  
Since 1 July heating degree days 4541 4119  
Cooling Degree Days 11 5  
Month to date cooling degree days 123 70  
Year to date cooling degree days 153 112  
Growing Degree Days 26 (Base 50)    
Moisture  
Dew Point 64 °F    
Average Humidity 66    
Maximum Humidity 87    
Minimum Humidity 45    
Precipitation  
Precipitation 0.00 in 0.14 in 1.25 in (2013)
Month to date precipitation 2.05 3.49  
Year to date precipitation 19.35 19.77  
Snow  
Snow 0.00 in 0.00 in 0.00 in (2002)
Month to date snowfall 0.0 0.0  
Since 1 July snowfall 18.5 9.1  
Snow Depth 0.00 in    
Sea Level Pressure  
Sea Level Pressure 29.99 in    
Wind  
Wind Speed 10 mph (SW)    
Max Wind Speed 24 mph    
Max Gust Speed 31 mph    
Visibility 10 miles    
Events      
T = Trace of Precipitation, MM = Missing Value Source: NWS Daily Summary

Daily Weather History Graph

Daily Weather History Graph

Search for Another Location

Airport or City:

Trip Planner

Search our weather history database for the weather conditions in past years. The results will help you decide how hot, cold, wet, or windy it might be!

Date:

Astronomy

May. 21, 2014 Rise Set
Actual Time 5:42 AM CDT 8:01 PM CDT
Civil Twilight 5:12 AM CDT 8:30 PM CDT
Nautical Twilight 4:36 AM CDT 9:07 PM CDT
Astronomical Twilight 3:57 AM CDT 9:47 PM CDT
Moon 1:14 AM CDT (5/21) 12:52 PM CDT (5/21)
Length of Visible Light 15h 18m
Length of Day
14h 18m
Waning Gibbous, 48% of the Moon is Illuminated
May 21
Waning Gibbous
May 28
New
Jun 5
First Quarter
Jun 12
Full
Jun 19
Last Quarter

Hourly Weather History & Observations

Time (CDT) Temp. Heat Index Dew Point Humidity Pressure Visibility Wind Dir Wind Speed Gust Speed Precip Events Conditions
12:53 AM 73.0 °F - 61.0 °F 66% 29.96 in 10.0 mi WSW 8.1 mph - N/A   Clear
1:53 AM 71.1 °F - 62.1 °F 73% 29.97 in 10.0 mi Calm Calm - N/A   Clear
2:53 AM 64.9 °F - 61.0 °F 87% 29.98 in 10.0 mi Calm Calm - N/A   Clear
3:53 AM 69.8 °F - 62.6 °F 78% 29.98 in 10.0 mi SSW 5.8 mph - N/A   Clear
4:53 AM 68.0 °F - 62.1 °F 81% 29.98 in 10.0 mi SSW 3.5 mph - N/A   Clear
5:53 AM 69.1 °F - 62.1 °F 78% 29.99 in 10.0 mi SSW 4.6 mph - N/A   Clear
6:53 AM 71.1 °F - 63.0 °F 75% 30.00 in 10.0 mi SW 6.9 mph - N/A   Clear
7:53 AM 73.0 °F - 64.0 °F 73% 30.01 in 10.0 mi SW 8.1 mph - N/A   Clear
8:53 AM 78.1 °F - 64.9 °F 64% 30.02 in 10.0 mi SW 15.0 mph - N/A   Clear
10:53 AM 82.9 °F 84.6 °F 64.9 °F 54% 30.02 in 10.0 mi WSW 23.0 mph 31.1 mph N/A   Clear
11:53 AM 84.9 °F 87.6 °F 66.9 °F 55% 30.01 in 10.0 mi WSW 12.7 mph 23.0 mph N/A   Clear
12:53 PM 86.0 °F 88.2 °F 66.2 °F 51% 30.01 in 10.0 mi WSW 18.4 mph 25.3 mph N/A   Clear
1:53 PM 87.1 °F 89.9 °F 66.9 °F 51% 29.99 in 10.0 mi WSW 16.1 mph 27.6 mph N/A   Clear
2:53 PM 86.0 °F 88.2 °F 66.0 °F 51% 29.99 in 10.0 mi SW 18.4 mph 27.6 mph N/A   Scattered Clouds
3:53 PM 86.0 °F 87.6 °F 64.9 °F 49% 29.98 in 10.0 mi SW 15.0 mph 21.9 mph N/A   Partly Cloudy
4:53 PM 86.0 °F 86.8 °F 63.0 °F 46% 29.96 in 10.0 mi SW 17.3 mph 23.0 mph N/A   Clear
5:53 PM 82.9 °F 83.7 °F 62.1 °F 49% 29.99 in 10.0 mi SW 15.0 mph 26.5 mph N/A   Clear
6:53 PM 81.0 °F 82.2 °F 63.0 °F 54% 29.99 in 10.0 mi WSW 8.1 mph - N/A   Scattered Clouds
7:53 PM 79.0 °F - 63.0 °F 58% 29.97 in 10.0 mi SW 9.2 mph - N/A   Clear
8:53 PM 75.0 °F - 63.0 °F 66% 29.98 in 10.0 mi Calm Calm - N/A   Clear
9:53 PM 75.0 °F - 63.0 °F 66% 29.99 in 10.0 mi SW 3.5 mph - N/A   Clear
10:53 PM 72.0 °F - 64.0 °F 76% 30.01 in 10.0 mi SW 3.5 mph - N/A   Clear
11:53 PM 73.0 °F - 64.0 °F 73% 30.01 in 10.0 mi SW 4.6 mph - N/A   Clear